Tracking 30061 objects as of 8-Dec-2024
HD Live streaming from Space Station
objects crossing your sky now

STARLINK-11189

Track STARLINK-11189 now!
10-day predictions
STARLINK-11189 is classified as:


NORAD ID: 60188
Int'l Code: 2024-124F
Perigee: 366.1 km
Apogee: 367.6 km
Inclination: 53.2 °
Period: 91.7 minutes
Semi major axis: 6737 km
RCS: Unknown
Launch date: July 3, 2024
Source: United States (US)
Launch site: AIR FORCE EASTERN TEST RANGE (AFETR)
Your satellite tracking list
Your tracking list is empty




NASA's NSSDC Master Catalog

Two Line Element Set (TLE):
1 60188U 24124F   24343.14627492  .00001454  00000-0  16852-4 0  9997
2 60188  53.1583 252.2205 0001082  91.9048 268.2094 15.69718348 26001
Source of the keplerian elements: AFSPC